| time (UTC) | temp F | wind direction | speed MPH | gust MPH | rain 1hr in | rain 24hr in | rain mn in | humidity % | barometer mb |
| 20260508065005 | 57 | 43 | 0.0 | 1.0 | 0.06 | 0.07 | 0.07 | 88 | 1011.0 |
| 20260508064507 | 57 | 45 | 0.0 | 1.0 | 0.06 | 0.06 | 0.06 | 88 | 1011.0 |
| 20260508064007 | 57 | 65 | 0.0 | 3.0 | 0.06 | 0.06 | 0.06 | 88 | 1011.1 |
| 20260508063510 | 57 | 52 | 0.0 | 0.0 | 0.06 | 0.06 | 0.06 | 88 | 1011.1 |
| 20260508063012 | 57 | 52 | 0.0 | 0.0 | 0.06 | 0.06 | 0.06 | 88 | 1011.1 |
| 20260508062507 | 57 | 49 | 0.0 | 0.0 | 0.05 | 0.05 | 0.05 | 88 | 1011.1 |
| 20260508061506 | 57 | 17 | 0.0 | 0.0 | 0.04 | 0.04 | 0.04 | 88 | 1011.1 |
| 20260508061007 | 57 | 19 | 0.0 | 1.0 | 0.03 | 0.03 | 0.03 | 87 | 1011.1 |
| 20260508060007 | 57 | 44 | 0.0 | 0.0 | 0.02 | 0.03 | 0.02 | 87 | 1011.0 |
| 20260508055515 | 57 | 54 | 0.0 | 0.0 | 0.02 | 0.02 | 0.02 | 86 | 1011.1 |
| 20260508055007 | 57 | 54 | 0.0 | 0.0 | 0.02 | 0.02 | 0.02 | 86 | 1011.1 |
| 20260508054506 | 57 | 54 | 0.0 | 0.0 | 0.01 | 0.02 | 0.01 | 86 | 1011.0 |
| 20260508053506 | 58 | 54 | 0.0 | 0.0 | 0.00 | 0.02 | 0.00 | 85 | 1011.0 |
| 20260508053007 | 58 | 54 | 0.0 | 0.0 | 0.00 | 0.02 | 0.00 | 84 | 1011.0 |
| 20260508052007 | 58 | 54 | 0.0 | 0.0 | 0.00 | 0.02 | 0.00 | 83 | 1010.9 |
| 20260508051505 | 58 | 54 | 0.0 | 0.0 | 0.00 | 0.02 | 0.00 | 82 | 1010.9 |
| 20260508051005 | 58 | 54 | 0.0 | 0.0 | 0.00 | 0.02 | 0.00 | 81 | 1010.8 |
| 20260508050506 | 58 | 54 | 0.0 | 0.0 | 0.00 | 0.02 | 0.00 | 80 | 1010.8 |
| 20260508050005 | 58 | 54 | 0.0 | 0.0 | 0.00 | 0.02 | 0.00 | 80 | 1010.8 |
| 20260508045507 | 58 | 54 | 0.0 | 0.0 | 0.00 | 0.04 | 0.00 | 79 | 1010.8 |
| 20260508045010 | 58 | 54 | 0.0 | 0.0 | 0.00 | 0.05 | 0.00 | 79 | 1010.7 |
| 20260508044505 | 57 | 54 | 0.0 | 0.0 | 0.00 | 0.06 | 0.00 | 78 | 1010.7 |
| 20260508043505 | 57 | 54 | 0.0 | 1.0 | 0.00 | 0.06 | 0.00 | 78 | 1010.6 |
| 20260508042506 | 57 | 54 | 0.0 | 2.0 | 0.00 | 0.06 | 0.00 | 77 | 1010.6 |
| 20260508042007 | 57 | 48 | 0.0 | 2.0 | 0.00 | 0.06 | 0.00 | 78 | 1010.6 |
| 20260508041008 | 57 | 57 | 1.0 | 3.0 | 0.00 | 0.06 | 0.00 | 79 | 1010.6 |
| 20260508040505 | 57 | 41 | 0.0 | 1.0 | 0.00 | 0.06 | 0.00 | 80 | 1010.6 |
| 20260508040008 | 56 | 41 | 0.0 | 2.0 | 0.00 | 0.06 | 0.00 | 81 | 1010.6 |
| 20260508035505 | 56 | 57 | 1.0 | 3.0 | 0.00 | 0.06 | 0.00 | 82 | 1010.6 |
| 20260508035010 | 56 | 40 | 0.0 | 0.0 | 0.00 | 0.07 | 0.00 | 82 | 1010.7 |
| 20260508034007 | 56 | 40 | 0.0 | 0.0 | 0.00 | 0.07 | 0.00 | 80 | 1010.6 |
| 20260508033508 | 57 | 42 | 0.0 | 1.0 | 0.00 | 0.08 | 0.00 | 79 | 1010.6 |
| 20260508033007 | 57 | 42 | 0.0 | 0.0 | 0.00 | 0.08 | 0.00 | 78 | 1010.5 |
| 20260508032506 | 57 | 42 | 0.0 | 1.0 | 0.00 | 0.09 | 0.00 | 78 | 1010.5 |
| 20260508032007 | 57 | 42 | 0.0 | 1.0 | 0.00 | 0.11 | 0.00 | 78 | 1010.5 |
| 20260508031510 | 57 | 42 | 1.0 | 2.0 | 0.00 | 0.11 | 0.00 | 78 | 1010.5 |
| 20260508031006 | 57 | 41 | 0.0 | 2.0 | 0.00 | 0.12 | 0.00 | 78 | 1010.5 |
| 20260508030506 | 57 | 45 | 1.0 | 2.0 | 0.00 | 0.13 | 0.00 | 78 | 1010.5 |
| 20260508030005 | 57 | 47 | 1.0 | 3.0 | 0.00 | 0.14 | 0.00 | 78 | 1010.5 |
| 20260508025505 | 57 | 42 | 2.0 | 3.0 | 0.00 | 0.15 | 0.00 | 78 | 1010.5 |
| 20260508025007 | 57 | 56 | 1.0 | 2.0 | 0.00 | 0.16 | 0.00 | 78 | 1010.6 |
| 20260508023505 | 57 | 35 | 1.0 | 2.0 | 0.00 | 0.17 | 0.00 | 77 | 1010.8 |
| 20260508022007 | 57 | 28 | 1.0 | 2.0 | 0.00 | 0.18 | 0.00 | 76 | 1010.8 |
| 20260508021506 | 57 | 28 | 1.0 | 3.0 | 0.00 | 0.18 | 0.00 | 76 | 1010.9 |
| 20260508020507 | 57 | 31 | 1.0 | 2.0 | 0.00 | 0.18 | 0.00 | 76 | 1011.0 |
| 20260508015505 | 57 | 62 | 1.0 | 2.0 | 0.00 | 0.18 | 0.00 | 75 | 1011.1 |
| 20260508015007 | 57 | 60 | 1.0 | 2.0 | 0.00 | 0.19 | 0.00 | 75 | 1011.1 |
| 20260508014507 | 57 | 66 | 1.0 | 2.0 | 0.00 | 0.19 | 0.00 | 75 | 1011.1 |
| 20260508014007 | 57 | 22 | 1.0 | 2.0 | 0.00 | 0.20 | 0.00 | 75 | 1011.2 |
| 20260508013510 | 57 | 110 | 0.0 | 2.0 | 0.00 | 0.20 | 0.00 | 75 | 1011.2 |
| 20260508013010 | 57 | 221 | 0.0 | 1.0 | 0.00 | 0.21 | 0.00 | 74 | 1011.2 |
| 20260508012505 | 57 | 171 | 1.0 | 1.0 | 0.00 | 0.22 | 0.00 | 74 | 1011.2 |
| 20260508012007 | 57 | 115 | 0.0 | 1.0 | 0.00 | 0.23 | 0.00 | 74 | 1011.2 |
| 20260508011505 | 57 | 116 | 0.0 | 1.0 | 0.00 | 0.24 | 0.00 | 74 | 1011.2 |
| 20260508010507 | 57 | 85 | 1.0 | 2.0 | 0.00 | 0.26 | 0.00 | 73 | 1011.1 |
| 20260508010010 | 57 | 315 | 0.0 | 2.0 | 0.00 | 0.27 | 0.00 | 73 | 1011.1 |
| 20260508005505 | 57 | 134 | 1.0 | 3.0 | 0.00 | 0.28 | 0.00 | 73 | 1011.0 |
| 20260508005011 | 57 | 40 | 1.0 | 3.0 | 0.00 | 0.28 | 0.00 | 73 | 1011.0 |
| 20260508003507 | 57 | 56 | 1.0 | 3.0 | 0.00 | 0.28 | 0.00 | 72 | 1011.2 |
| 20260508002505 | 57 | 229 | 1.0 | 6.0 | 0.00 | 0.28 | 0.00 | 72 | 1011.3 |
| 20260508002007 | 56 | 104 | 2.0 | 5.0 | 0.00 | 0.28 | 0.00 | 72 | 1011.3 |
| 20260508001505 | 56 | 174 | 1.0 | 3.0 | 0.00 | 0.28 | 0.00 | 72 | 1011.3 |
| 20260508001007 | 57 | 167 | 1.0 | 2.0 | 0.00 | 0.28 | 0.00 | 71 | 1011.4 |
| 20260508000510 | 57 | 167 | 1.0 | 2.0 | 0.00 | 0.28 | 0.00 | 70 | 1011.5 |
| 20260508000010 | 57 | 154 | 1.0 | 3.0 | 0.00 | 0.28 | 0.00 | 69 | 1011.6 |
| 20260507235507 | 57 | 133 | 0.0 | 2.0 | 0.00 | 0.28 | 0.00 | 69 | 1011.8 |
| 20260507235007 | 57 | 52 | 0.0 | 2.0 | 0.00 | 0.28 | 0.00 | 68 | 1011.8 |
| 20260507234011 | 58 | 142 | 0.0 | 2.0 | 0.00 | 0.29 | 0.00 | 68 | 1012.0 |
| 20260507233510 | 58 | 116 | 0.0 | 1.0 | 0.00 | 0.29 | 0.00 | 67 | 1012.0 |
| 20260507233007 | 58 | 147 | 0.0 | 2.0 | 0.00 | 0.29 | 0.00 | 67 | 1012.1 |
| 20260507232505 | 58 | 172 | 0.0 | 1.0 | 0.00 | 0.29 | 0.00 | 67 | 1012.2 |
| 20260507232006 | 58 | 190 | 0.0 | 2.0 | 0.00 | 0.29 | 0.00 | 67 | 1012.3 |
| 20260507231006 | 58 | 179 | 1.0 | 3.0 | 0.00 | 0.29 | 0.00 | 66 | 1012.4 |
| 20260507230508 | 58 | 173 | 1.0 | 3.0 | 0.00 | 0.29 | 0.00 | 65 | 1012.5 |
| 20260507225506 | 58 | 173 | 2.0 | 7.0 | 0.00 | 0.29 | 0.00 | 64 | 1012.6 |
| 20260507225005 | 58 | 141 | 1.0 | 7.0 | 0.00 | 0.29 | 0.00 | 64 | 1012.7 |
| 20260507224507 | 58 | 170 | 1.0 | 3.0 | 0.00 | 0.29 | 0.00 | 64 | 1012.7 |
| 20260507224006 | 58 | 169 | 1.0 | 3.0 | 0.00 | 0.29 | 0.00 | 64 | 1012.8 |
| 20260507223507 | 58 | 166 | 2.0 | 3.0 | 0.00 | 0.29 | 0.00 | 63 | 1012.9 |
| 20260507223008 | 58 | 172 | 2.0 | 5.0 | 0.00 | 0.29 | 0.00 | 63 | 1012.9 |
| 20260507222507 | 59 | 171 | 2.0 | 5.0 | 0.00 | 0.29 | 0.00 | 63 | 1012.8 |
| 20260507222006 | 59 | 167 | 2.0 | 3.0 | 0.00 | 0.29 | 0.00 | 63 | 1012.8 |
| 20260507221507 | 59 | 171 | 2.0 | 5.0 | 0.00 | 0.29 | 0.00 | 63 | 1012.8 |
| 20260507221011 | 59 | 174 | 2.0 | 3.0 | 0.00 | 0.29 | 0.00 | 62 | 1012.8 |
| 20260507220507 | 59 | 169 | 2.0 | 5.0 | 0.00 | 0.29 | 0.00 | 62 | 1012.7 |
| 20260507220006 | 59 | 184 | 2.0 | 5.0 | 0.00 | 0.29 | 0.00 | 61 | 1012.7 |
| 20260507215505 | 59 | 179 | 3.0 | 6.0 | 0.00 | 0.29 | 0.29 | 61 | 1012.8 |
| 20260507215011 | 59 | 170 | 4.0 | 7.0 | 0.00 | 0.29 | 0.29 | 60 | 1012.8 |
| 20260507214506 | 59 | 177 | 3.0 | 6.0 | 0.00 | 0.29 | 0.29 | 60 | 1012.7 |
| 20260507214015 | 59 | 170 | 4.0 | 7.0 | 0.00 | 0.29 | 0.29 | 60 | 1012.8 |
| 20260507213514 | 59 | 176 | 4.0 | 9.0 | 0.00 | 0.29 | 0.29 | 60 | 1012.8 |
| 20260507213008 | 59 | 172 | 4.0 | 9.0 | 0.00 | 0.29 | 0.29 | 61 | 1012.9 |
| 20260507212506 | 58 | 182 | 3.0 | 8.0 | 0.00 | 0.29 | 0.29 | 62 | 1012.9 |
| 20260507211006 | 57 | 179 | 1.0 | 3.0 | 0.00 | 0.29 | 0.29 | 66 | 1012.9 |
| 20260507210507 | 57 | 169 | 1.0 | 2.0 | 0.00 | 0.29 | 0.29 | 67 | 1013.0 |
| 20260507205507 | 57 | 67 | 1.0 | 3.0 | 0.00 | 0.29 | 0.29 | 69 | 1013.0 |
| 20260507205005 | 57 | 29 | 0.0 | 3.0 | 0.00 | 0.29 | 0.29 | 71 | 1013.0 |
| 20260507204506 | 56 | 175 | 0.0 | 1.0 | 0.00 | 0.29 | 0.29 | 72 | 1013.1 |
| 20260507204011 | 56 | 140 | 0.0 | 3.0 | 0.00 | 0.29 | 0.29 | 74 | 1013.1 |
| 20260507203507 | 56 | 169 | 1.0 | 3.0 | 0.00 | 0.29 | 0.29 | 76 | 1013.2 |
| 20260507202007 | 56 | 181 | 0.0 | 2.0 | 0.00 | 0.29 | 0.29 | 76 | 1013.5 |
| 20260507201007 | 56 | 176 | 1.0 | 3.0 | 0.00 | 0.29 | 0.29 | 76 | 1013.7 |
| 20260507200506 | 56 | 176 | 2.0 | 3.0 | 0.00 | 0.29 | 0.29 | 75 | 1013.7 |
| 20260507200007 | 57 | 181 | 2.0 | 3.0 | 0.00 | 0.29 | 0.29 | 75 | 1013.7 |
| 20260507195507 | 57 | 184 | 2.0 | 3.0 | 0.00 | 0.29 | 0.29 | 74 | 1013.7 |
| 20260507195007 | 57 | 184 | 1.0 | 3.0 | 0.00 | 0.29 | 0.29 | 73 | 1013.7 |
| 20260507194506 | 57 | 178 | 1.0 | 3.0 | 0.00 | 0.29 | 0.29 | 73 | 1013.7 |
| 20260507193005 | 58 | 177 | 2.0 | 3.0 | 0.00 | 0.29 | 0.29 | 72 | 1013.5 |
| 20260507192505 | 58 | 181 | 2.0 | 5.0 | 0.00 | 0.29 | 0.29 | 71 | 1013.4 |
| 20260507192008 | 58 | 168 | 3.0 | 6.0 | 0.00 | 0.29 | 0.29 | 71 | 1013.3 |
| 20260507191506 | 58 | 174 | 3.0 | 8.0 | 0.00 | 0.29 | 0.29 | 71 | 1013.2 |
| 20260507191007 | 58 | 174 | 5.0 | 7.0 | 0.00 | 0.29 | 0.29 | 71 | 1013.0 |
| 20260507190008 | 59 | 178 | 3.0 | 8.0 | 0.00 | 0.29 | 0.29 | 70 | 1012.9 |
| 20260507185507 | 59 | 162 | 3.0 | 8.0 | 0.00 | 0.29 | 0.29 | 70 | 1012.8 |
| 20260507185008 | 59 | 179 | 2.0 | 6.0 | 0.00 | 0.29 | 0.29 | 69 | 1012.8 |
| 20260507184506 | 59 | 163 | 3.0 | 7.0 | 0.00 | 0.29 | 0.29 | 69 | 1012.9 |
| 20260507184009 | 59 | 168 | 2.0 | 6.0 | 0.00 | 0.29 | 0.29 | 69 | 1012.8 |
| 20260507183008 | 59 | 182 | 2.0 | 6.0 | 0.00 | 0.29 | 0.29 | 67 | 1012.9 |
| 20260507182506 | 59 | 176 | 5.0 | 8.0 | 0.00 | 0.29 | 0.29 | 67 | 1012.9 |
| 20260507182006 | 59 | 185 | 4.0 | 9.0 | 0.00 | 0.29 | 0.29 | 66 | 1012.8 |
| 20260507181507 | 59 | 170 | 3.0 | 7.0 | 0.00 | 0.29 | 0.29 | 65 | 1012.8 |
| 20260507181005 | 60 | 171 | 4.0 | 10.0 | 0.00 | 0.29 | 0.29 | 65 | 1012.8 |
| 20260507180507 | 60 | 162 | 3.0 | 8.0 | 0.00 | 0.29 | 0.29 | 64 | 1012.8 |
| 20260507180010 | 60 | 172 | 3.0 | 6.0 | 0.00 | 0.29 | 0.29 | 63 | 1012.8 |
| 20260507175507 | 60 | 167 | 3.0 | 5.0 | 0.00 | 0.29 | 0.29 | 61 | 1012.8 |
| 20260507175008 | 60 | 173 | 2.0 | 6.0 | 0.00 | 0.29 | 0.29 | 60 | 1012.8 |
| 20260507174507 | 61 | 176 | 2.0 | 6.0 | 0.00 | 0.29 | 0.29 | 59 | 1012.9 |
| 20260507174007 | 61 | 172 | 1.0 | 3.0 | 0.00 | 0.29 | 0.29 | 59 | 1012.8 |
| 20260507173011 | 62 | 176 | 2.0 | 3.0 | 0.00 | 0.29 | 0.29 | 57 | 1012.8 |
| 20260507172007 | 62 | 170 | 2.0 | 3.0 | 0.00 | 0.29 | 0.29 | 54 | 1012.9 |
| 20260507171506 | 62 | 186 | 3.0 | 7.0 | 0.00 | 0.29 | 0.29 | 53 | 1013.0 |
| 20260507171005 | 63 | 186 | 4.0 | 6.0 | 0.00 | 0.29 | 0.29 | 52 | 1013.1 |
| 20260507170510 | 63 | 196 | 1.0 | 6.0 | 0.00 | 0.29 | 0.29 | 51 | 1013.0 |
| 20260507170005 | 63 | 183 | 3.0 | 9.0 | 0.00 | 0.29 | 0.29 | 50 | 1012.8 |
| 20260507165507 | 64 | 166 | 4.0 | 8.0 | 0.00 | 0.29 | 0.29 | 49 | 1012.8 |
| 20260507165007 | 64 | 191 | 3.0 | 10.0 | 0.00 | 0.29 | 0.29 | 47 | 1012.9 |
| 20260507164505 | 64 | 164 | 3.0 | 8.0 | 0.00 | 0.29 | 0.29 | 46 | 1013.0 |
| 20260507164007 | 65 | 174 | 4.0 | 7.0 | 0.00 | 0.29 | 0.29 | 45 | 1012.9 |
| 20260507163507 | 65 | 176 | 3.0 | 7.0 | 0.00 | 0.29 | 0.29 | 44 | 1013.0 |
| 20260507163011 | 65 | 171 | 3.0 | 10.0 | 0.00 | 0.29 | 0.29 | 43 | 1013.0 |
| 20260507162505 | 65 | 197 | 5.0 | 9.0 | 0.00 | 0.29 | 0.29 | 42 | 1013.1 |
| 20260507162006 | 65 | 178 | 5.0 | 10.0 | 0.00 | 0.29 | 0.29 | 41 | 1013.0 |
| 20260507161505 | 65 | 161 | 6.0 | 12.0 | 0.00 | 0.29 | 0.29 | 43 | 1012.8 |
| 20260507161008 | 65 | 184 | 7.0 | 12.0 | 0.00 | 0.29 | 0.29 | 42 | 1012.8 |
| 20260507160506 | 66 | 205 | 6.0 | 14.0 | 0.00 | 0.29 | 0.29 | 42 | 1012.7 |
| 20260507155505 | 66 | 196 | 9.0 | 17.0 | 0.00 | 0.29 | 0.29 | 41 | 1012.8 |
| 20260507155007 | 67 | 198 | 7.0 | 14.0 | 0.00 | 0.29 | 0.29 | 41 | 1012.8 |
| 20260507154006 | 67 | 199 | 4.0 | 15.0 | 0.00 | 0.29 | 0.29 | 44 | 1012.6 |
| 20260507153511 | 67 | 202 | 7.0 | 17.0 | 0.00 | 0.29 | 0.29 | 44 | 1012.6 |
| 20260507152508 | 67 | 204 | 8.0 | 15.0 | 0.00 | 0.29 | 0.29 | 44 | 1012.5 |
| 20260507152005 | 67 | 180 | 10.0 | 16.0 | 0.00 | 0.29 | 0.29 | 41 | 1012.7 |
| 20260507151507 | 67 | 181 | 8.0 | 16.0 | 0.00 | 0.29 | 0.29 | 45 | 1012.6 |
| 20260507151007 | 67 | 190 | 6.0 | 16.0 | 0.00 | 0.29 | 0.29 | 46 | 1012.7 |
| 20260507150507 | 67 | 188 | 10.0 | 16.0 | 0.00 | 0.29 | 0.29 | 44 | 1012.8 |
| 20260507145505 | 68 | 192 | 9.0 | 20.0 | 0.00 | 0.29 | 0.29 | 43 | 1012.9 |
| 20260507145011 | 68 | 168 | 8.0 | 17.0 | 0.00 | 0.29 | 0.29 | 47 | 1012.9 |
| 20260507144507 | 68 | 201 | 12.0 | 22.0 | 0.00 | 0.29 | 0.29 | 45 | 1013.0 |
| 20260507144007 | 68 | 207 | 9.0 | 15.0 | 0.00 | 0.29 | 0.29 | 45 | 1012.9 |
| 20260507143507 | 68 | 207 | 11.0 | 18.0 | 0.00 | 0.29 | 0.29 | 44 | 1012.9 |
| 20260507143007 | 68 | 197 | 10.0 | 20.0 | 0.00 | 0.29 | 0.29 | 45 | 1012.9 |
| 20260507142506 | 68 | 200 | 13.0 | 21.0 | 0.00 | 0.29 | 0.29 | 43 | 1012.9 |
| 20260507142007 | 68 | 202 | 10.0 | 18.0 | 0.00 | 0.29 | 0.29 | 44 | 1012.9 |
| 20260507141505 | 69 | 200 | 8.0 | 16.0 | 0.00 | 0.29 | 0.29 | 46 | 1012.9 |
| 20260507141007 | 69 | 183 | 8.0 | 15.0 | 0.00 | 0.29 | 0.29 | 46 | 1012.9 |
| 20260507140505 | 68 | 190 | 10.0 | 17.0 | 0.00 | 0.29 | 0.29 | 46 | 1012.8 |
| 20260507140006 | 68 | 200 | 7.0 | 17.0 | 0.00 | 0.29 | 0.29 | 51 | 1012.7 |
| 20260507135507 | 67 | 195 | 9.0 | 17.0 | 0.00 | 0.29 | 0.29 | 48 | 1012.8 |
| 20260507134506 | 66 | 181 | 11.0 | 18.0 | 0.00 | 0.29 | 0.29 | 56 | 1012.9 |
| 20260507134007 | 65 | 218 | 10.0 | 17.0 | 0.00 | 0.29 | 0.29 | 57 | 1012.9 |
| 20260507133506 | 65 | 204 | 10.0 | 17.0 | 0.00 | 0.29 | 0.29 | 60 | 1013.0 |
| 20260507133007 | 65 | 192 | 12.0 | 17.0 | 0.00 | 0.29 | 0.29 | 59 | 1013.2 |
| 20260507132505 | 65 | 176 | 9.0 | 16.0 | 0.00 | 0.29 | 0.29 | 62 | 1013.2 |
| 20260507132006 | 65 | 221 | 12.0 | 20.0 | 0.00 | 0.29 | 0.29 | 57 | 1013.3 |
| 20260507130507 | 66 | 209 | 8.0 | 20.0 | 0.00 | 0.29 | 0.29 | 61 | 1013.2 |
| 20260507125507 | 67 | 218 | 9.0 | 18.0 | 0.00 | 0.29 | 0.29 | 55 | 1013.4 |
| 20260507125007 | 67 | 194 | 8.0 | 14.0 | 0.00 | 0.29 | 0.29 | 58 | 1013.3 |
| 20260507124507 | 66 | 189 | 9.0 | 20.0 | 0.00 | 0.29 | 0.29 | 59 | 1013.5 |
| 20260507124007 | 66 | 201 | 9.0 | 18.0 | 0.00 | 0.29 | 0.29 | 60 | 1013.6 |
| 20260507123516 | 66 | 202 | 9.0 | 21.0 | 0.00 | 0.29 | 0.29 | 59 | 1013.6 |
| 20260507123007 | 66 | 191 | 10.0 | 16.0 | 0.00 | 0.29 | 0.29 | 55 | 1013.6 |
| 20260507122506 | 66 | 210 | 9.0 | 16.0 | 0.00 | 0.29 | 0.29 | 60 | 1013.4 |
| 20260507122010 | 66 | 184 | 8.0 | 20.0 | 0.00 | 0.29 | 0.29 | 65 | 1013.4 |
| 20260507121507 | 66 | 179 | 10.0 | 20.0 | 0.00 | 0.29 | 0.29 | 67 | 1013.4 |
| 20260507121011 | 66 | 207 | 12.0 | 18.0 | 0.00 | 0.29 | 0.29 | 67 | 1013.4 |
| 20260507120510 | 67 | 194 | 11.0 | 20.0 | 0.00 | 0.29 | 0.29 | 66 | 1013.5 |
| 20260507120007 | 67 | 203 | 11.0 | 21.0 | 0.00 | 0.29 | 0.29 | 67 | 1013.7 |
| 20260507115510 | 67 | 195 | 13.0 | 20.0 | 0.00 | 0.29 | 0.29 | 65 | 1013.8 |
| 20260507115005 | 67 | 186 | 9.0 | 20.0 | 0.00 | 0.29 | 0.29 | 69 | 1013.7 |
| 20260507114511 | 66 | 193 | 10.0 | 20.0 | 0.00 | 0.29 | 0.29 | 71 | 1013.6 |
| 20260507114007 | 66 | 204 | 13.0 | 24.0 | 0.00 | 0.29 | 0.29 | 69 | 1013.7 |
| 20260507113507 | 65 | 205 | 14.0 | 24.0 | 0.00 | 0.29 | 0.29 | 67 | 1013.7 |
| 20260507113006 | 66 | 189 | 7.0 | 20.0 | 0.00 | 0.29 | 0.29 | 69 | 1013.5 |
| 20260507112505 | 66 | 203 | 12.0 | 22.0 | 0.00 | 0.29 | 0.29 | 70 | 1013.7 |
| 20260507112008 | 65 | 204 | 7.0 | 20.0 | 0.00 | 0.29 | 0.29 | 72 | 1013.7 |
| 20260507111506 | 65 | 218 | 12.0 | 22.0 | 0.00 | 0.29 | 0.29 | 70 | 1013.7 |
| 20260507111006 | 67 | 205 | 14.0 | 23.0 | 0.00 | 0.29 | 0.29 | 67 | 1013.9 |
| 20260507110505 | 67 | 205 | 10.0 | 20.0 | 0.00 | 0.29 | 0.29 | 70 | 1013.7 |
| 20260507110006 | 66 | 188 | 9.0 | 23.0 | 0.00 | 0.29 | 0.29 | 72 | 1013.8 |
| 20260507105505 | 65 | 200 | 16.0 | 23.0 | 0.00 | 0.29 | 0.29 | 72 | 1013.8 |
| 20260507105009 | 66 | 184 | 10.0 | 21.0 | 0.00 | 0.29 | 0.29 | 73 | 1013.9 |
| 20260507104506 | 65 | 202 | 10.0 | 23.0 | 0.00 | 0.29 | 0.29 | 73 | 1013.8 |
| 20260507104007 | 65 | 200 | 13.0 | 25.0 | 0.00 | 0.29 | 0.29 | 74 | 1013.9 |
| 20260507103506 | 65 | 199 | 11.0 | 25.0 | 0.00 | 0.29 | 0.29 | 75 | 1014.0 |
| 20260507103007 | 65 | 188 | 12.0 | 20.0 | 0.00 | 0.29 | 0.29 | 74 | 1014.2 |
| 20260507102506 | 65 | 199 | 12.0 | 22.0 | 0.00 | 0.29 | 0.29 | 75 | 1014.1 |
| 20260507102007 | 65 | 185 | 10.0 | 23.0 | 0.00 | 0.29 | 0.29 | 75 | 1014.0 |
| 20260507101507 | 65 | 185 | 11.0 | 25.0 | 0.00 | 0.29 | 0.29 | 76 | 1014.1 |
| 20260507101007 | 65 | 194 | 13.0 | 21.0 | 0.00 | 0.29 | 0.29 | 76 | 1014.4 |
| 20260507100507 | 65 | 179 | 10.0 | 20.0 | 0.00 | 0.29 | 0.29 | 76 | 1014.3 |
| 20260507100007 | 65 | 186 | 10.0 | 20.0 | 0.00 | 0.29 | 0.29 | 76 | 1014.5 |
| 20260507095507 | 65 | 194 | 9.0 | 16.0 | 0.00 | 0.29 | 0.29 | 76 | 1014.4 |
| 20260507095021 | 65 | 186 | 7.0 | 16.0 | 0.00 | 0.29 | 0.29 | 78 | 1014.4 |
| 20260507094505 | 65 | 206 | 10.0 | 17.0 | 0.00 | 0.29 | 0.29 | 79 | 1014.6 |
| 20260507094016 | 64 | 164 | 10.0 | 18.0 | 0.00 | 0.29 | 0.29 | 81 | 1014.5 |
| 20260507093509 | 64 | 187 | 9.0 | 18.0 | 0.00 | 0.29 | 0.29 | 83 | 1014.5 |
| 20260507093007 | 64 | 191 | 10.0 | 16.0 | 0.00 | 0.29 | 0.29 | 85 | 1014.4 |
| 20260507092506 | 63 | 193 | 9.0 | 15.0 | 0.00 | 0.29 | 0.29 | 88 | 1014.3 |
| 20260507092007 | 62 | 178 | 10.0 | 20.0 | 0.00 | 0.29 | 0.29 | 88 | 1014.3 |
| 20260507090507 | 60 | 199 | 12.0 | 20.0 | 0.00 | 0.29 | 0.29 | 83 | 1014.3 |
| 20260507090007 | 60 | 186 | 7.0 | 20.0 | 0.00 | 0.29 | 0.29 | 83 | 1014.2 |
| 20260507085505 | 59 | 175 | 10.0 | 22.0 | 0.00 | 0.29 | 0.29 | 83 | 1014.1 |
| 20260507085007 | 60 | 179 | 9.0 | 18.0 | 0.00 | 0.29 | 0.29 | 83 | 1014.1 |
| 20260507084506 | 59 | 167 | 10.0 | 17.0 | 0.00 | 0.29 | 0.29 | 83 | 1013.9 |
| 20260507083510 | 60 | 165 | 6.0 | 12.0 | 0.00 | 0.29 | 0.29 | 83 | 1013.8 |
| 20260507083005 | 59 | 171 | 6.0 | 14.0 | 0.00 | 0.29 | 0.29 | 83 | 1013.8 |
| 20260507082505 | 60 | 173 | 7.0 | 15.0 | 0.00 | 0.29 | 0.29 | 83 | 1013.8 |
| 20260507082007 | 60 | 167 | 8.0 | 15.0 | 0.00 | 0.29 | 0.29 | 82 | 1013.9 |
| 20260507081506 | 60 | 181 | 9.0 | 14.0 | 0.00 | 0.29 | 0.29 | 82 | 1013.9 |
| 20260507081006 | 60 | 169 | 8.0 | 15.0 | 0.00 | 0.29 | 0.29 | 82 | 1013.9 |
| 20260507080507 | 60 | 193 | 6.0 | 12.0 | 0.00 | 0.29 | 0.29 | 82 | 1013.7 |
| 20260507080013 | 60 | 179 | 9.0 | 15.0 | 0.00 | 0.29 | 0.29 | 82 | 1013.8 |
| 20260507075511 | 60 | 173 | 7.0 | 14.0 | 0.00 | 0.29 | 0.29 | 82 | 1013.7 |
| 20260507074505 | 59 | 181 | 5.0 | 14.0 | 0.00 | 0.29 | 0.29 | 82 | 1013.5 |
| 20260507074007 | 59 | 154 | 5.0 | 10.0 | 0.00 | 0.29 | 0.29 | 82 | 1013.8 |
| 20260507073507 | 58 | 173 | 5.0 | 14.0 | 0.00 | 0.29 | 0.29 | 82 | 1013.9 |
| 20260507073007 | 58 | 167 | 7.0 | 14.0 | 0.00 | 0.29 | 0.29 | 83 | 1014.2 |
| 20260507072507 | 58 | 180 | 4.0 | 12.0 | 0.00 | 0.29 | 0.29 | 83 | 1014.3 |
| 20260507072007 | 58 | 175 | 6.0 | 12.0 | 0.00 | 0.29 | 0.29 | 83 | 1014.5 |
| 20260507071506 | 58 | 174 | 7.0 | 12.0 | 0.00 | 0.29 | 0.29 | 83 | 1014.6 |
| 20260507070010 | 58 | 165 | 6.0 | 13.0 | 0.01 | 0.29 | 0.29 | 83 | 1014.7 |